TimeCST,TemperatureF,Dew PointF,Humidity,Sea Level PressureIn,VisibilityMPH,Wind Direction,Wind SpeedMPH,Gust SpeedMPH,PrecipitationIn,Events,Conditions,WindDirDegrees,DateUTC
12:40 AM,73.4,73.4,100,29.89,7.0,North,4.6,-,N/A,,Partly Cloudy,350,2013-11-06 06:40:00
1:40 AM,71.6,71.6,100,29.87,7.0,North,5.8,-,N/A,,Partly Cloudy,360,2013-11-06 07:40:00
2:42 AM,71.6,71.6,100,29.91,7.0,North,4.6,-,N/A,,Partly Cloudy,360,2013-11-06 08:42:00
3:40 AM,71.6,71.6,100,29.87,7.0,North,9.2,-,N/A,,Partly Cloudy,350,2013-11-06 09:40:00
4:40 AM,71.6,71.6,100,29.86,7.0,NNW,9.2,-,N/A,,Partly Cloudy,340,2013-11-06 10:40:00
5:44 AM,71.6,71.6,100,29.88,7.0,North,9.2,-,N/A,,Scattered Clouds,350,2013-11-06 11:44:00
6:44 AM,71.6,71.6,100,29.90,7.0,North,11.5,-,N/A,,Mostly Cloudy,360,2013-11-06 12:44:00
7:46 AM,71.6,71.6,100,29.91,8.0,North,5.8,-,N/A,,Mostly Cloudy,10,2013-11-06 13:46:00
8:46 AM,75.2,73.4,94,29.96,8.0,NNE,9.2,-,N/A,,Mostly Cloudy,20,2013-11-06 14:46:00
9:45 AM,75.2,73.4,94,29.92,8.0,North,3.5,-,N/A,,Mostly Cloudy,10,2013-11-06 15:45:00
10:43 AM,75.2,73.4,94,29.93,8.0,NE,8.1,-,N/A,,Mostly Cloudy,50,2013-11-06 16:43:00
11:50 AM,78.8,73.4,83,29.89,8.0,ENE,8.1,-,N/A,,Mostly Cloudy,60,2013-11-06 17:50:00
12:52 PM,80.6,73.4,79,29.88,8.0,ENE,5.8,-,N/A,,Mostly Cloudy,70,2013-11-06 18:52:00
1:46 PM,80.6,73.4,79,29.86,8.0,ENE,9.2,-,N/A,,Mostly Cloudy,60,2013-11-06 19:46:00
2:42 PM,80.6,71.6,74,29.88,8.0,NE,6.9,-,N/A,,Mostly Cloudy,50,2013-11-06 20:42:00
3:42 PM,78.8,73.4,83,29.86,8.0,NNE,5.8,-,N/A,,Mostly Cloudy,20,2013-11-06 21:42:00
4:46 PM,77.0,73.4,89,29.87,8.0,ENE,3.5,-,N/A,,Mostly Cloudy,70,2013-11-06 22:46:00
5:44 PM,73.4,73.4,100,29.88,8.0,Calm,Calm,-,N/A,,Mostly Cloudy,0,2013-11-06 23:44:00
6:42 PM,73.4,73.4,100,29.92,7.0,Calm,Calm,-,N/A,,Scattered Clouds,0,2013-11-07 00:42:00
7:45 PM,73.4,73.4,100,29.93,7.0,Calm,Calm,-,N/A,,Scattered Clouds,0,2013-11-07 01:45:00
8:42 PM,71.6,71.6,100,29.96,7.0,Calm,Calm,-,N/A,,Partly Cloudy,0,2013-11-07 02:42:00
9:40 PM,71.6,71.6,100,29.93,7.0,Calm,Calm,-,N/A,,Partly Cloudy,0,2013-11-07 03:40:00
10:40 PM,69.8,69.8,100,29.93,7.0,Calm,Calm,-,N/A,,Scattered Clouds,0,2013-11-07 04:40:00
11:40 PM,69.8,69.8,100,29.91,7.0,Calm,Calm,-,N/A,,Scattered Clouds,0,2013-11-07 05:40:00